Change the Weather History Date:

Wednesday, July 10, 2013

  Actual Average (KDFW) Record (KDFW)
Temperature  
Mean Temperature 90 °F 85 °F  
Max Temperature 102 °F 95 °F 107 °F (1917)
Min Temperature 80 °F 75 °F 56 °F (1905)
Degree Days  
Heating Degree Days 0 0  
Month to date heating degree days 0  
Since 1 June heating degree days 0  
Since 1 July heating degree days 0  
Cooling Degree Days 25 20  
Month to date cooling degree days 195  
Year to date cooling degree days 1108  
Since 1 June cooling degree days 686  
Growing Degree Days 40 (Base 50)    
Moisture  
Dew Point 67 °F    
Average Humidity 49    
Maximum Humidity 79    
Minimum Humidity 29    
Precipitation  
Precipitation 0.00 in 0.08 in 2.14 in (1907)
Month to date precipitation 0.90  
Year to date precipitation 20.94  
Sea Level Pressure  
Sea Level Pressure 29.98 in    
Wind  
Wind Speed 7 mph (South)    
Max Wind Speed 13 mph    
Max Gust Speed 18 mph    
Visibility 10 miles    
Events      
T = Trace of Precipitation, MM = Missing Value Source: NWS Daily Summary

Daily Weather History Graph

Daily Weather History Graph

Search for Another Location

Airport or City:

Trip Planner

Search our weather history database for the weather conditions in past years. The results will help you decide how hot, cold, wet, or windy it might be!

Date:

Astronomy

Jul. 10, 2013 Rise Set
Actual Time 6:25 AM CDT 8:35 PM CDT
Civil Twilight 5:57 AM CDT 9:03 PM CDT
Nautical Twilight 5:22 AM CDT 9:37 PM CDT
Astronomical Twilight 4:45 AM CDT 10:14 PM CDT
Moon 8:37 AM CDT (7/10) 9:57 PM CDT (7/10)
Length of Visible Light 15h 06m
Length of Day
14h 10m
Waxing Crescent, 5% of the Moon is Illuminated
Jul 10
Waxing Crescent
Jul 15
First Quarter
Jul 22
Full
Jul 29
Last Quarter
Aug 6
New

Hourly Weather History & Observations

Time (CDT) Temp. Heat Index Dew Point Humidity Pressure Visibility Wind Dir Wind Speed Gust Speed Precip Events Conditions
12:53 AM 84.9 °F 87.6 °F 66.9 °F 55% 30.02 in 10.0 mi South 8.1 mph - N/A   Clear
1:53 AM 84.0 °F 87.0 °F 68.0 °F 58% 30.03 in 10.0 mi South 6.9 mph - N/A   Clear
2:53 AM 84.0 °F 88.4 °F 70.0 °F 63% 30.02 in 10.0 mi South 10.4 mph - N/A   Clear
3:53 AM 82.9 °F 87.5 °F 71.1 °F 67% 30.02 in 10.0 mi South 9.2 mph - N/A   Clear
4:53 AM 81.0 °F 85.2 °F 72.0 °F 74% 30.02 in 10.0 mi South 6.9 mph - N/A   Clear
5:53 AM 81.0 °F 85.2 °F 72.0 °F 74% 30.03 in 10.0 mi South 6.9 mph - N/A   Overcast
6:53 AM 80.1 °F 84.2 °F 73.0 °F 79% 30.04 in 10.0 mi South 5.8 mph - N/A   Clear
7:53 AM 81.0 °F 85.8 °F 73.0 °F 77% 30.05 in 10.0 mi SSW 6.9 mph 18.4 mph N/A   Scattered Clouds
8:53 AM 84.9 °F 90.7 °F 72.0 °F 65% 30.05 in 10.0 mi SW 12.7 mph - N/A   Clear
9:53 AM 88.0 °F 93.8 °F 71.1 °F 57% 30.05 in 10.0 mi SW 8.1 mph - N/A   Clear
10:53 AM 91.0 °F 95.6 °F 69.1 °F 48% 30.05 in 10.0 mi WSW 11.5 mph - N/A   Mostly Cloudy
11:53 AM 93.9 °F 97.5 °F 66.9 °F 41% 30.04 in 10.0 mi Variable 6.9 mph - N/A   Clear
12:53 PM 96.1 °F 99.3 °F 66.0 °F 37% 30.02 in 10.0 mi WSW 9.2 mph - N/A   Partly Cloudy
1:53 PM 98.1 °F 101.2 °F 64.9 °F 34% 30.00 in 10.0 mi SW 9.2 mph - N/A   Partly Cloudy
2:53 PM 98.1 °F 100.7 °F 64.0 °F 33% 29.98 in 10.0 mi South 5.8 mph - N/A   Partly Cloudy
3:53 PM 99.0 °F 101.7 °F 64.0 °F 32% 29.96 in 10.0 mi Variable 3.5 mph - N/A   Mostly Cloudy
4:53 PM 100.0 °F 103.0 °F 64.0 °F 31% 29.92 in 10.0 mi SSW 6.9 mph - N/A   Clear
5:53 PM 100.0 °F 101.8 °F 62.1 °F 29% 29.90 in 10.0 mi ESE 4.6 mph - N/A   Partly Cloudy
6:53 PM 99.0 °F 100.5 °F 62.1 °F 30% 29.90 in 10.0 mi SE 8.1 mph - N/A   Clear
7:53 PM 97.0 °F 97.8 °F 62.1 °F 31% 29.89 in 10.0 mi SE 5.8 mph - N/A   Clear
8:53 PM 93.0 °F 93.8 °F 62.1 °F 36% 29.89 in 10.0 mi SE 3.5 mph - N/A   Clear
9:53 PM 90.0 °F 90.6 °F 63.0 °F 40% 29.91 in 10.0 mi ESE 3.5 mph - N/A   Clear
10:53 PM 87.1 °F 87.8 °F 63.0 °F 44% 29.92 in 10.0 mi Calm Calm - N/A   Clear
11:53 PM 86.0 °F 87.3 °F 64.0 °F 48% 29.93 in 10.0 mi South 3.5 mph - N/A   Clear